Regional Weather Roundup
Issued by NWS Northern Indiana

Home | Current Version | Previous Version | Graphics & Text | Print | Product List | Glossary On
Versions: 1 2 3 4 5 6 7 8 9 10 11 12 13 14 15 16 17 18 19 20 21 22 23 24 25 26 27 28 29 30 31 32 33 34 35 36 37 38 39 40 41 42 43 44 45 46 47 48 49 50
584
ASUS43 KIWX 301610
RWRIWX

KIWX WEATHER ROUNDUP
NATIONAL WEATHER SERVICE NORTHERN INDIANA
1200 PM EDT SAT JUL 30 2016

NOTE: "FAIR" INDICATES FEW OR NO CLOUDS BELOW 12,000 FEET WITH NO
SIGNIFICANT WEATHER AND/OR OBSTRUCTIONS TO VISIBILITY.

* THESE STATIONS ARE NOT UNDER NWS QUALITY CONTROL. THEY ALSO MAY NOT
  REPORT WEATHER SUCH AS PRECIPITATION OR FOG.

INZ001>027-301700-
NORTHERN INDIANA

CITY           SKY/WX    TMP DP  RH WIND       PRES   REMARKS
GARY*          PTSUNNY   75  72  88 NE8       29.98S
VALPARAISO     CLOUDY    72  68  87 E5        29.98S
MICHIGAN CITY* CLOUDY    72  66  83 MISG      29.99S
LAPORTE*       CLOUDY    74  70  89 NE8       29.99S
KNOX*          CLOUDY    72  64  78 NE6       29.97S
SOUTH BEND     CLOUDY    70  64  81 E7        30.00R
ELKHART*       CLOUDY    70  63  78 E8        30.00S
GOSHEN         CLOUDY    71  62  73 N8        29.99S
MONTICELLO*    CLOUDY    71  65  83 CALM      29.97R HAZE
LOGANSPORT*    CLOUDY    73  68  83 CALM      29.97S
ROCHESTER*     PTSUNNY   77  72  83 E5        29.97S
WARSAW*        CLOUDY    72  66  83 NE6       29.99R
ANGOLA*          N/A     68  59  73 N5        29.99S
FORT WAYNE     CLOUDY    76  68  76 N6        29.98R
HUNTINGTON*    CLOUDY    75  70  84 CALM      29.97S
PERU/GRISSOM   CLOUDY    74  70  88 VRB2      29.96S
MARION*        CLOUDY    71  70  99 CALM      29.99R

$$
INZ028>050-301700-
CENTRAL INDIANA

CITY           SKY/WX    TMP DP  RH WIND       PRES   REMARKS
LAFAYETTE      CLOUDY    74  70  87 NW5       29.97R
KOKOMO*        CLOUDY    72  66  83 NW3       29.97S
MUNCIE*        MOSUNNY   79  71  76 W6        29.97S
INDIANAPOLIS   MOSUNNY   81  65  58 SW9       29.97S

$$
MIZ043>046-050>051-056>058-064>065-071>073-077>080-301700-
SOUTHWEST LOWER MICHIGAN

CITY           SKY/WX    TMP DP  RH WIND       PRES   REMARKS
BATTLE CREEK   LGT RAIN  64  64 100 CALM      30.02R
BENTON HARBOR  CLOUDY    74  65  73 E8        29.99R
COLDWATER*     CLOUDY    69  66  89 NE7       29.99F
HILLSDALE*     CLOUDY    68  64  84 NE5       30.00R
HOLLAND        CLOUDY    68  63  84 E7        30.02S
GRAND RAPIDS   LGT RAIN  67  63  87 NE6       30.03S
KALAMAZOO      LGT RAIN  67  64  90 NE5       30.00F
STURGIS*       CLOUDY    66  64  93 NE5       30.00R FOG
THREE RIVERS*  CLOUDY    68  65  92 E8        30.00F

$$
OHZ001>008-015>018-024>025-301700-
NORTHWEST OHIO

CITY           SKY/WX    TMP DP  RH WIND       PRES   REMARKS
DEFIANCE       CLOUDY    75  67  76 N5        29.98R
FINDLAY        MOSUNNY   80  69  69 W8        29.95S
TOLEDO EXPRESS CLOUDY    79  70  74 N6        29.95S
TOLEDO METCALF PTSUNNY   79  70  74 N8        29.96R
LIMA           CLOUDY    74  70  87 VRB3      29.98R

$$
AND FOR LAKE MICHIGAN COASTAL AND OPEN LAKE BUOY OBSERVATIONS

STATION/POSITION TEMP    WIND        PRES    VSBY  WAVE
                 AIR SEA DIR/SP/G                  HT/PER
                 (F)     (DEG/KT/KT) (MB)    (MI)  (FT/S)
CALUMET HARBOR    70      40/  7/ 10 1014.8R
MICHIGAN CITY     65      30/  9/ 10   N/A
BURNS HARBOR      66      80/ 11/ 14 1015.6R
SAINT JOSEPH      72      10/  3/  5 1016.6R
SOUTH LAKE BUOY   68 73   70/  8/ 10 1015.4F         2/ 4
4 MI NW BRIDGMAN  69 70   70/  6/ 10 1015.4R         2
MICHIGAN CITY     69 72   70/ 12/ 14   N/A           3/ 5

$$
&&




USA.gov is the U.S. government's official web portal to all federal, state and local government web resources and services.